This demonstration page uses our WeatherBlox Daily Observations layout. Learn more.

36.17497, -115.13722

Hourly Observations for November 18, 2019

Temp ( °F °C ) Dew Point ( °F °C ) Humidity (%) Winds ( mph kmh ) Pressure ( in mb ) Visibility ( mi km ) Precip ( " mm )
12:53 am 00:53 Clear 57 13.9 19 -7.2 23 23 NW 6 9 30.1 1019 10 16.0934 0 0
1:53 am 01:53 Clear 57 13.9 19 -7.2 23 23 WNW 8 13 30.09 1019 10 16.0934 0 0
2:53 am 02:53 Clear 59 15 18 -7.8 20 20 WNW 6 9 30.07 1018 10 16.0934 0 0
3:53 am 03:53 Clear 53 11.7 18 -7.8 25 25 N 5 7 30.08 1019 10 16.0934 0 0
4:53 am 04:53 Clear 53 11.7 22 -5.6 30 30 NW 3 6 30.09 1019 10 16.0934 0 0
5:53 am 05:53 Clear 52 11.1 24 -4.4 34 34 W 5 7 30.09 1019 10 16.0934 0 0
6:53 am 06:53 Sunny 52 11.1 24 -4.4 34 34 NW 6 9 30.11 1020 10 16.0934 0 0
7:53 am 07:53 Sunny 60 15.6 21 -6.1 22 22 NW 3 6 30.11 1020 10 16.0934 0 0
8:53 am 08:53 Sunny 62 16.7 23 -5 22 22 Calm 30.11 1020 10 16.0934 0 0
9:53 am 09:53 Sunny 67 19.4 23 -5 19 19 VRB 3 6 30.09 1019 10 16.0934 0 0
10:53 am 10:53 Sunny 69 20.6 22 -5.6 17 17 S 3 6 30.06 1018 10 16.0934 0 0
11:53 am 11:53 Sunny 71 21.7 22 -5.6 16 16 Calm 30.01 1016 10 16.0934 0 0
12:53 pm 12:53 Sunny 74 23.3 23 -5 15 15 VRB 3 6 29.98 1015 10 16.0934 0 0
1:53 pm 13:53 Sunny 76 24.4 24 -4.4 14 14 VRB 5 7 29.94 1014 10 16.0934 0 0
2:53 pm 14:53 Sunny 76 24.4 24 -4.4 14 14 SSE 3 6 29.93 1013 10 16.0934 0 0
3:53 pm 15:53 Sunny 75 23.9 24 -4.4 15 15 SE 6 9 29.92 1013 10 16.0934 0 0
4:53 pm 16:53 Clear 72 22.2 24 -4.4 17 17 Calm 29.92 1013 10 16.0934 0 0
5:53 pm 17:53 Clear 68 20 27 -2.8 21 21 Calm 29.93 1014 10 16.0934 0 0
6:53 pm 18:53 Clear 63 17.2 28 -2.2 27 27 NNW 5 7 29.94 1014 10 16.0934 0 0
7:53 pm 19:53 Clear 62 16.7 30 -1.1 30 30 W 5 7 29.93 1014 10 16.0934 0 0
8:53 pm 20:53 Clear 59 15 29 -1.7 32 32 NNW 6 9 29.93 1013 10 16.0934 0 0
9:53 pm 21:53 Clear 58 14.4 27 -2.8 31 31 WNW 6 9 29.91 1013 10 16.0934 0 0
10:53 pm 22:53 Clear 55 12.8 27 -2.8 34 34 WNW 5 7 29.9 1013 10 16.0934 0 0
11:53 pm 23:53 Clear 54 12.2 28 -2.2 37 37 NW 5 7 29.88 1012 10 16.0934 0 0

Powered by AerisWeather